Deer Lodge (38S)
Deer Lodge, MT
Field Elevation: 4692
Lat: 49°23.27N  Long: 112°45.89W
CTAF/Unicom Freq: 120.0250
   
     For Weather-by-Phone, call 406-846-1177
Weather Advisories
12/20/2014 11:21 Z
Altimeter 30.00" Hg
Wind 250° @ 5 KT
Gusts --
Visibility 10 SM
Temperature -5° C (23° F)
Dewpoint -7° C (19° F)
Relative Humidity 83%
Density Altitude --
Condensation Altitude 5,800 feet
Wind Chill -9° C (16° F)
  Wind and Runways
Indicated Runway = 31
History
 
 
More Info
All DigiWx sites map
Weather Radar
NOAA Forecast
 
Airport IQ 5010
(S59) Libby
(6S5) Ravalli County
 
about DigiWx
 
FAA Disclaimer: The data displayed is for advisory purposes only and is not to be used for flight planning or operations. For official data, please call 406-846-1177 to hear the current automated AWOS voice message.
  METAR 38S 201121Z AUTO 25005KT 10SM M05/M07 A3000